FW1458 Weather Reports


Display with metric or nautical units.
time (UTC)temp
F
wind
direction
speed
MPH
gust
MPH
rain 1hr
in
rain 24hr
in
rain mn
in
humidity
%
barometer
mb
20260508110035 55 167 1.0 2.0 0.00 0.00 0.00 78 1012.9
20260508104547 55 165 0.0 2.0 0.00 0.00 0.00 76 1012.8
20260508103034 55 153 0.0 3.0 0.00 0.00 0.00 75 1012.8
20260508101540 56 153 0.0 3.0 0.00 0.00 0.00 74 1012.6
20260508100037 56 174 1.0 3.0 0.00 0.00 0.00 73 1012.5
20260508094531 56 195 2.0 6.0 0.00 0.00 0.00 73 1012.2
20260508093033 56 192 1.0 4.0 0.00 0.00 0.00 73 1012.1
20260508091533 56 207 1.0 6.0 0.00 0.00 0.00 73 1012.0
20260508090038 56 165 0.0 2.0 0.00 0.00 0.00 72 1012.1
20260508084528 56 162 0.0 5.0 0.00 0.00 0.00 72 1012.1
20260508083035 55 173 1.0 3.0 0.00 0.00 0.00 73 1012.2
20260508081526 54 156 1.0 3.0 0.00 0.00 0.00 75 1012.4
20260508080024 53 164 0.0 3.0 0.00 0.00 0.00 76 1012.6
20260508074522 53 166 0.0 1.0 0.00 0.00 0.00 76 1012.8
20260508073025 53 166 0.0 1.0 0.00 0.00 0.00 76 1013.0
20260508071520 53 159 0.0 0.0 0.00 0.00 0.00 74 1013.3
20260508070015 54 159 0.0 0.0 0.00 0.00 0.00 73 1013.5
20260508064543 55 159 0.0 0.0 0.00 0.00 0.00 72 1013.6
20260508063015 55 159 0.0 0.0 0.00 0.00 0.00 72 1013.5
20260508061510 55 140 0.0 1.0 0.00 0.00 0.00 72 1013.7
20260508060006 56 140 0.0 0.0 0.00 0.00 0.00 70 1013.7
20260508054504 57 140 0.0 1.0 0.00 0.00 0.00 69 1013.7
20260508053002 57 140 0.0 3.0 0.00 0.00 0.00 69 1013.6
20260508051602 58 130 0.0 1.0 0.00 0.00 0.00 68 1013.6
20260508050101 58 142 0.0 3.0 0.00 0.00 0.00 67 1013.6
20260508044559 59 167 0.0 3.0 0.00 0.00 0.00 66 1013.8
20260508043058 60 142 0.0 2.0 0.00 0.00 0.00 64 1014.0
20260508041555 60 168 0.0 3.0 0.00 0.00 0.00 63 1014.1
20260508040103 60 163 1.0 4.0 0.00 0.00 0.00 62 1014.4
20260508034554 61 147 0.0 4.0 0.00 0.00 0.00 61 1014.4
20260508033054 61 162 0.0 3.0 0.00 0.00 0.00 59 1014.2
20260508031602 62 148 0.0 3.0 0.00 0.00 0.00 58 1014.2
20260508024553 62 164 1.0 3.0 0.00 0.00 0.00 56 1014.1
20260508023050 63 162 0.0 1.0 0.00 0.00 0.00 54 1014.1
20260508021600 64 168 0.0 2.0 0.00 0.00 0.00 53 1013.9
20260508020051 64 164 0.0 3.0 0.00 0.00 0.00 53 1013.9
20260508014550 65 171 0.0 2.0 0.00 0.00 0.00 51 1013.9
20260508013052 66 165 1.0 3.0 0.00 0.00 0.00 49 1013.5
20260508011551 68 180 0.0 2.0 0.00 0.00 0.00 48 1013.2
20260508010048 69 174 1.0 4.0 0.00 0.00 0.00 46 1013.0
20260508004547 70 202 3.0 6.0 0.00 0.00 0.00 44 1013.0
20260508003047 71 156 3.0 6.0 0.00 0.00 0.00 44 1013.0
20260508001546 71 165 2.0 6.0 0.00 0.00 0.00 42 1013.1
20260508000054 72 226 1.0 9.0 0.00 0.00 0.00 42 1013.1
20260507234546 72 225 2.0 8.0 0.00 0.00 0.00 42 1013.3
20260507233041 74 210 3.0 8.0 0.00 0.00 0.00 38 1013.4
20260507231545 74 260 2.0 7.0 0.00 0.00 0.00 38 1013.6
20260507230038 74 172 2.0 8.0 0.00 0.00 0.00 40 1013.6
20260507224536 74 253 3.0 6.0 0.00 0.00 0.00 38 1013.9
20260507223034 75 240 3.0 6.0 0.00 0.00 0.00 38 1014.0
20260507221533 75 192 1.0 6.0 0.00 0.00 0.00 40 1014.0
20260507220029 75 226 3.0 5.0 0.00 0.00 0.00 38 1014.2
20260507214530 74 227 5.0 9.0 0.00 0.00 0.00 39 1014.3
20260507213027 74 224 3.0 6.0 0.00 0.00 0.00 41 1014.4
20260507211532 74 175 3.0 11.0 0.00 0.00 0.00 40 1014.7
20260507210022 73 240 2.0 12.0 0.00 0.00 0.00 40 1014.9
20260507204519 73 244 3.0 9.0 0.00 0.00 0.00 41 1015.2
20260507203017 73 282 2.0 9.0 0.00 0.00 0.00 41 1015.6
20260507201517 73 265 2.0 6.0 0.00 0.00 0.00 40 1015.9
20260507200014 73 306 0.0 8.0 0.00 0.00 0.00 42 1015.9
20260507194511 72 182 1.0 10.0 0.00 0.00 0.00 43 1016.0
20260507193017 72 264 4.0 11.0 0.00 0.00 0.00 42 1016.3
20260507191510 71 252 3.0 10.0 0.00 0.00 0.00 43 1016.7
20260507190014 71 168 3.0 9.0 0.00 0.00 0.00 43 1016.7
20260507184504 71 194 5.0 9.0 0.00 0.00 0.00 46 1017.0
20260507183002 71 192 4.0 8.0 0.00 0.00 0.00 44 1017.2
20260507181501 70 188 3.0 8.0 0.00 0.00 0.00 46 1017.4
20260507180108 69 316 3.0 9.0 0.00 0.00 0.00 44 1017.6
20260507174625 69 349 2.0 7.0 0.00 0.00 0.00 43 1018.0
20260507173055 69 156 6.0 18.0 0.00 0.00 0.00 46 1018.2
20260507171605 68 209 4.0 9.0 0.00 0.00 0.00 44 1018.4
20260507170050 68 269 4.0 9.0 0.00 0.00 0.00 44 1018.6
20260507164552 68 264 4.0 8.0 0.00 0.00 0.00 45 1018.9
20260507163045 66 248 2.0 7.0 0.00 0.00 0.00 45 1019.0
20260507161547 66 254 4.0 8.0 0.00 0.00 0.00 46 1019.2
20260507160108 65 205 1.0 7.0 0.00 0.00 0.00 48 1019.3
20260507154539 64 200 3.0 9.0 0.00 0.00 0.00 48 1019.4
20260507153038 64 215 4.0 8.0 0.00 0.00 0.00 47 1019.5
20260507151534 63 136 3.0 7.0 0.00 0.00 0.00 48 1019.9
20260507150037 62 207 2.0 7.0 0.00 0.00 0.00 53 1020.0
20260507144528 61 228 3.0 7.0 0.00 0.00 0.00 56 1020.2
20260507143026 59 255 1.0 5.0 0.00 0.00 0.00 62 1020.2
20260507141526 57 177 2.0 7.0 0.00 0.00 0.00 67 1020.2
20260507140033 55 168 1.0 5.0 0.00 0.00 0.00 72 1020.1
20260507134512 53 197 1.0 4.0 0.00 0.00 0.00 78 1020.2
20260507133009 51 167 2.0 5.0 0.00 0.00 0.00 85 1020.0
20260507131506 48 180 1.0 2.0 0.00 0.00 0.00 89 1019.9
20260507130003 46 188 0.0 2.0 0.00 0.00 0.00 90 1020.1
20260507124503 45 184 0.0 0.0 0.00 0.00 0.00 90 1019.8
20260507123106 45 184 0.0 0.0 0.00 0.00 0.00 90 1019.8
20260507121601 44 184 0.0 0.0 0.00 0.00 0.00 89 1019.7
20260507120057 43 184 0.0 0.0 0.00 0.00 0.00 89 1019.4
20260507114557 43 184 0.0 0.0 0.00 0.00 0.00 89 1019.3
20260507113127 43 184 0.0 0.0 0.00 0.00 0.00 89 1019.3
20260507111556 43 184 0.0 0.0 0.00 0.00 0.00 89 1019.1